This is the latest recevied weather packets stored in our database for station/object IU1DOF-3. If no packets are shown the sender has not sent any weather packets the latest 1 day(s).
| Time | Temp. | Humidity | Pressure | Rain* | Wind** | Luminosity | Snow |
|---|---|---|---|---|---|---|---|
| 1777987600 | 12.22° C | 87% | 1011.1 hPa | 0 mm | 0 m/s | - | - |
| 1777986988 | 12.22° C | 89% | 1011.2 hPa | 0 mm | 0 m/s | - | - |
| 1777986379 | 12.78° C | 86% | 1010.9 hPa | 0 mm | 0 m/s | - | - |
| 1777985757 | 12.22° C | 87% | 1011 hPa | 0 mm | 0.45 m/s, 294° | - | - |
| 1777985132 | 12.22° C | 86% | 1011.1 hPa | 0 mm | 0 m/s | - | - |
| 1777984524 | 12.22° C | 86% | 1011 hPa | 0 mm | 0 m/s | - | - |
| 1777983915 | 11.67° C | 88% | 1011.3 hPa | 0 mm | 0.89 m/s, 293° | - | - |
| 1777983307 | 11.67° C | 86% | 1011.2 hPa | 0 mm | 1.79 m/s, 294° | - | - |
| 1777982700 | 11.67° C | 84% | 1011.2 hPa | 0 mm | 0.45 m/s, 294° | - | - |
| 1777982682 | 12.22° C | 84% | 1011.3 hPa | 0 mm | 0.45 m/s, 294° | - | - |
| 1777982673 | 12.22° C | 85% | 1011.4 hPa | 0 mm | 0.45 m/s, 293° | - | - |
| 1777981524 | 12.22° C | 82% | 1011.3 hPa | 0 mm | 0 m/s | - | - |
| 1777977116 | 11.67° C | 82% | 1011.5 hPa | 0 mm | 0.89 m/s, 298° | - | - |
| 1777976493 | 11.67° C | 80% | 1011.8 hPa | 0 mm | 0 m/s | - | - |
| 1777976485 | 11.67° C | 80% | 1011.8 hPa | 0 mm | 0 m/s | - | - |
| 1777975841 | 11.67° C | 84% | 1011.6 hPa | 0 mm | 0.45 m/s, 298° | - | - |
| 1777975228 | 11.67° C | 87% | 1011.7 hPa | 0 mm | 1.34 m/s, 298° | - | - |
| 1777974604 | 10.56° C | 86% | 1011.7 hPa | 0 mm | 0.45 m/s, 297° | - | - |
| 1777973995 | 11.11° C | 86% | 1011.9 hPa | 0 mm | 0.45 m/s, 298° | - | - |
| 1777973382 | 11.11° C | 84% | 1011.8 hPa | 1.78 mm | 0 m/s | - | - |
| 1777972764 | 10.56° C | 84% | 1011.9 hPa | 0 mm | 0 m/s | - | - |
| 1777972140 | 10.56° C | 85% | 1011.8 hPa | 0 mm | 0.45 m/s, 298° | - | - |
| 1777971520 | 10.56° C | 84% | 1011.5 hPa | 0 mm | 0.45 m/s, 298° | - | - |
| 1777970908 | 10° C | 88% | 1011.6 hPa | 0 mm | 0 m/s | - | - |
| 1777970284 | 10° C | 90% | 1011.4 hPa | 0 mm | 0 m/s | - | - |
* Rain latest hour (hover to see other rain measurements)
** Current wind speed in m/s (hover to see current wind gust speed)